GFSGL_850_dewp_000.txt.gz
Dewpoint
-9 -11 -15 -15 -17 -20 -24 -27 -27 -11 -4 -4 -5 -3 -5 -7 -12 -13 -15 -13 -12 -12 -11 -11 -11 -11 -11 -11 -14 -14 -14 -15 -15 -15 -15 -15 -14 -9 -6 -6 -10 -8 -6
-11 -13 -12 -12 -14 -18 -21 -21 -19 -10 -5 -5 -5 -4 -5 -13 -14 -14 -14 -12 -13 -12 -11 -11 -11 -11 -14 -15 -13 -12 -13 -15 -13 -10 -13 -16 -15 -9 -8 -8 -7 -8 -10
-12 -11 -12 -12 -13 -15 -16 -17 -15 -7 -5 -4 -3 -8 -14 -14 -14 -14 -14 -13 -11 -11 -11 -11 -12 -13 -12 -11 -11 -12 -13 -14 -12 -10 -10 -10 -13 -9 -8 -9 -8 -8 -7
-11 -11 -10 -11 -12 -14 -15 -13 -12 -7 -4 -4 -9 -14 -14 -12 -14 -13 -13 -12 -11 -11 -11 -13 -12 -10 -10 -10 -11 -11 -12 -13 -13 -12 -11 -10 -9 -12 -8 -10 -10 -12 -12
-11 -11 -10 -10 -11 -14 -11 -11 -11 -7 -6 -5 -11 -14 -11 -10 -13 -12 -12 -11 -11 -12 -13 -13 -11 -10 -11 -11 -11 -12 -12 -12 -12 -12 -11 -11 -10 -9 -9 -10 -10 -12 -14
-11 -10 -9 -9 -13 -11 -10 -9 -8 -5 -6 -7 -12 -10 -8 -12 -12 -11 -12 -12 -13 -15 -17 -14 -14 -13 -13 -12 -14 -12 -12 -13 -13 -12 -12 -12 -12 -10 -9 -9 -10 -12 -13
-10 -10 -9 -11 -10 -10 -9 -8 -6 -5 -6 -7 -8 -7 -8 -12 -11 -11 -12 -13 -17 -19 -17 -15 -15 -15 -14 -14 -14 -14 -13 -12 -12 -11 -11 -12 -11 -10 -11 -10 -10 -11 -13
-10 -9 -11 -9 -8 -10 -10 -8 -6 -6 -7 -7 -7 -12 -11 -9 -10 -12 -13 -17 -20 -17 -16 -15 -15 -15 -15 -13 -13 -12 -13 -13 -13 -12 -12 -12 -11 -11 -12 -12 -12 -12 -13
-9 -12 -9 -7 -7 -9 -11 -8 -8 -7 -7 -8 -11 -9 -8 -11 -11 -13 -16 -20 -18 -17 -16 -15 -15 -15 -14 -13 -13 -13 -13 -13 -13 -12 -12 -13 -15 -13 -11 -11 -12 -13 -13
-12 -9 -8 -7 -7 -8 -10 -7 -9 -9 -10 -10 -9 -10 -11 -11 -13 -15 -20 -18 -17 -17 -16 -15 -15 -15 -14 -13 -13 -13 -13 -13 -13 -12 -12 -13 -13 -14 -14 -12 -12 -10 -10
-14 -13 -9 -6 -6 -8 -10 -9 -9 -10 -11 -10 -11 -11 -10 -11 -14 -17 -19 -18 -19 -20 -16 -15 -15 -15 -14 -14 -13 -13 -13 -13 -13 -13 -12 -12 -12 -12 -13 -14 -14 -12 -11
-14 -14 -11 -8 -6 -7 -10 -11 -13 -10 -10 -11 -10 -9 -10 -12 -14 -16 -18 -18 -20 -28 -24 -16 -16 -16 -19 -18 -15 -14 -14 -14 -13 -13 -13 -13 -12 -12 -12 -12 -12 -14 -14
-14 -13 -10 -8 -6 -6 -11 -12 -12 -9 -10 -9 -8 -8 -11 -12 -13 -14 -18 -19 -20 -28 -33 -25 -21 -23 -21 -20 -17 -14 -14 -14 -14 -13 -13 -12 -12 -12 -11 -11 -11 -11 -11
-13 -10 -10 -7 -6 -5 -10 -12 -11 -9 -8 -8 -8 -9 -11 -12 -13 -14 -17 -19 -19 -22 -29 -28 -25 -24 -25 -23 -20 -17 -16 -14 -14 -13 -13 -12 -12 -11 -11 -11 -10 -10 -10
-11 -9 -8 -6 -6 -6 -7 -10 -9 -8 -9 -10 -9 -10 -10 -11 -12 -13 -15 -18 -18 -19 -26 -27 -27 -28 -29 -28 -27 -21 -18 -16 -14 -13 -13 -12 -11 -11 -11 -10 -10 -10 -9
-10 -6 -6 -6 -6 -6 -7 -7 -7 -8 -10 -10 -10 -10 -10 -11 -12 -12 -14 -14 -16 -18 -19 -24 -25 -26 -27 -28 -28 -29 -28 -21 -15 -13 -13 -12 -12 -11 -11 -11 -10 -10 -9
-6 -7 -6 -6 -5 -6 -6 -7 -7 -8 -10 -10 -11 -10 -11 -11 -11 -12 -13 -13 -13 -15 -18 -18 -21 -24 -26 -27 -28 -29 -31 -28 -18 -14 -13 -13 -12 -12 -12 -12 -11 -10 -10
-6 -6 -7 -6 -6 -6 -6 -6 -7 -8 -9 -10 -10 -10 -11 -11 -12 -12 -12 -12 -13 -13 -16 -18 -18 -20 -26 -28 -29 -29 -30 -32 -30 -16 -14 -13 -13 -13 -13 -12 -12 -12 -11
-6 -6 -6 -7 -7 -7 -7 -7 -8 -8 -8 -9 -10 -11 -11 -11 -12 -12 -12 -12 -12 -13 -14 -17 -19 -21 -22 -24 -26 -27 -30 -31 -32 -24 -16 -14 -13 -13 -13 -13 -13 -13 -13
-7 -6 -6 -7 -8 -8 -8 -8 -8 -8 -9 -9 -10 -11 -11 -11 -11 -12 -12 -12 -12 -12 -13 -13 -15 -19 -21 -25 -28 -26 -21 -27 -31 -33 -28 -20 -18 -16 -14 -13 -13 -13 -14
-7 -7 -7 -6 -8 -8 -8 -8 -8 -10 -10 -10 -10 -10 -10 -11 -11 -12 -11 -11 -12 -13 -13 -13 -14 -16 -18 -17 -19 -25 -30 -31 -30 -29 -32 -30 -26 -24 -20 -16 -14 -15 -14
-7 -7 -7 -7 -7 -7 -8 -9 -8 -9 -9 -10 -10 -10 -11 -11 -11 -11 -11 -10 -11 -12 -13 -13 -13 -13 -14 -16 -16 -15 -19 -25 -27 -29 -29 -30 -30 -30 -30 -25 -19 -20 -16
-7 -7 -7 -7 -7 -7 -8 -12 -11 -10 -10 -11 -10 -10 -11 -11 -11 -12 -11 -10 -11 -12 -12 -13 -13 -13 -13 -14 -16 -16 -15 -15 -16 -21 -25 -27 -29 -31 -32 -32 -31 -28 -25
-7 -8 -8 -7 -7 -7 -8 -8 -8 -8 -9 -9 -10 -11 -10 -10 -11 -11 -11 -11 -11 -12 -12 -13 -13 -13 -13 -14 -14 -15 -15 -14 -14 -15 -18 -18 -17 -24 -33 -34 -33 -33 -32
-7 -8 -8 -8 -8 -7 -7 -8 -7 -7 -8 -8 -8 -9 -10 -10 -11 -11 -10 -11 -11 -12 -13 -13 -13 -13 -13 -14 -14 -14 -15 -14 -15 -15 -16 -15 -15 -15 -17 -30 -33 -29 -28
-8 -8 -8 -8 -7 -7 -7 -7 -7 -7 -7 -7 -7 -8 -8 -9 -10 -10 -9 -11 -11 -13 -13 -13 -13 -13 -13 -13 -14 -14 -15 -15 -15 -16 -16 -16 -16 -15 -16 -17 -18 -22 -25

GFSGL_850_dewp_003.txt.gz
Dewpoint
-9 -12 -12 -12 -12 -12 -16 -22 -21 -19 -14 -4 -3 -4 -5 -5 -8 -12 -14 -14 -13 -13 -12 -11 -11 -11 -10 -11 -11 -11 -12 -12 -12 -13 -13 -11 -10 -9 -10 -9 -7 -5 -7
-11 -12 -11 -10 -10 -12 -17 -19 -16 -14 -9 -4 -4 -5 -6 -5 -13 -13 -14 -13 -13 -12 -12 -11 -10 -10 -10 -10 -10 -11 -11 -11 -11 -12 -11 -10 -10 -9 -9 -8 -7 -7 -6
-11 -11 -11 -10 -10 -11 -16 -15 -12 -12 -10 -6 -5 -6 -11 -14 -13 -12 -13 -12 -12 -11 -11 -12 -12 -11 -10 -10 -10 -10 -10 -10 -11 -10 -12 -12 -11 -10 -9 -8 -7 -7 -8
-11 -11 -11 -10 -10 -11 -15 -14 -11 -10 -9 -7 -5 -8 -10 -13 -10 -10 -13 -12 -12 -11 -12 -14 -14 -11 -10 -10 -10 -10 -10 -11 -11 -12 -11 -11 -11 -11 -8 -9 -9 -8 -9
-11 -11 -10 -9 -9 -12 -14 -13 -10 -9 -6 -6 -5 -12 -11 -9 -9 -10 -12 -11 -12 -13 -14 -17 -17 -15 -15 -12 -11 -11 -11 -12 -11 -12 -12 -12 -12 -11 -9 -9 -9 -9 -10
-11 -11 -10 -9 -9 -13 -12 -12 -10 -8 -5 -6 -7 -9 -10 -10 -6 -11 -10 -12 -12 -14 -19 -19 -17 -16 -13 -14 -14 -14 -13 -12 -12 -11 -11 -12 -13 -12 -10 -10 -10 -9 -12
-11 -11 -10 -9 -11 -10 -10 -11 -10 -7 -6 -6 -7 -7 -7 -10 -10 -9 -11 -12 -15 -19 -18 -17 -16 -14 -13 -13 -12 -12 -12 -13 -12 -12 -11 -11 -12 -11 -10 -10 -10 -10 -9
-11 -11 -9 -11 -10 -8 -9 -10 -10 -8 -8 -7 -7 -7 -9 -10 -9 -11 -11 -15 -19 -19 -17 -16 -14 -13 -13 -13 -12 -12 -12 -12 -12 -12 -11 -11 -11 -11 -11 -11 -10 -10 -10
-12 -12 -13 -10 -9 -7 -8 -9 -11 -9 -9 -10 -10 -10 -9 -9 -12 -10 -13 -17 -19 -18 -19 -16 -14 -13 -13 -13 -12 -12 -12 -12 -12 -12 -12 -12 -12 -13 -13 -11 -11 -10 -10
-16 -16 -14 -12 -10 -7 -7 -7 -11 -10 -10 -11 -11 -10 -10 -11 -10 -11 -15 -19 -19 -19 -24 -19 -16 -16 -14 -13 -13 -13 -13 -12 -13 -13 -12 -12 -12 -12 -13 -12 -11 -10 -10
-15 -15 -14 -13 -12 -8 -7 -7 -10 -10 -13 -12 -11 -11 -11 -9 -10 -13 -16 -18 -19 -21 -30 -30 -18 -26 -18 -17 -16 -14 -13 -13 -13 -13 -13 -12 -12 -12 -12 -11 -11 -11 -11
-15 -16 -16 -15 -12 -10 -8 -6 -9 -13 -12 -10 -11 -10 -8 -9 -11 -13 -15 -18 -19 -21 -27 -30 -23 -23 -24 -24 -22 -19 -16 -15 -14 -13 -13 -12 -12 -12 -11 -11 -11 -11 -11
-16 -17 -16 -14 -10 -9 -7 -6 -9 -11 -10 -10 -9 -8 -8 -9 -12 -13 -15 -17 -19 -20 -23 -27 -29 -27 -26 -26 -26 -22 -19 -17 -14 -13 -13 -12 -12 -11 -11 -11 -11 -11 -11
-16 -15 -14 -11 -9 -7 -6 -6 -9 -10 -9 -8 -10 -11 -10 -11 -11 -13 -13 -15 -17 -19 -19 -24 -26 -26 -27 -27 -27 -27 -24 -19 -15 -13 -13 -12 -11 -11 -11 -10 -11 -10 -10
-14 -12 -12 -7 -6 -6 -6 -6 -7 -9 -8 -9 -11 -11 -10 -10 -11 -12 -13 -14 -14 -16 -18 -18 -20 -22 -23 -25 -26 -28 -31 -26 -16 -14 -13 -12 -11 -11 -11 -10 -10 -10 -10
-11 -10 -6 -6 -6 -6 -6 -6 -7 -8 -7 -9 -11 -11 -11 -10 -10 -11 -12 -14 -13 -14 -15 -18 -17 -18 -21 -24 -26 -27 -29 -32 -21 -15 -13 -13 -12 -12 -12 -11 -10 -10 -10
-10 -8 -7 -6 -6 -6 -5 -6 -7 -7 -7 -8 -10 -11 -11 -10 -11 -11 -12 -13 -13 -13 -13 -16 -18 -17 -18 -21 -23 -25 -29 -31 -31 -18 -14 -13 -13 -12 -12 -12 -11 -11 -10
-8 -7 -7 -7 -7 -7 -6 -6 -6 -6 -6 -8 -9 -10 -11 -11 -11 -11 -12 -12 -12 -12 -13 -13 -16 -18 -19 -21 -23 -23 -21 -28 -32 -27 -18 -15 -13 -13 -13 -13 -12 -12 -12
-8 -7 -7 -7 -7 -7 -7 -7 -7 -7 -7 -7 -9 -9 -11 -10 -10 -11 -11 -12 -12 -12 -12 -13 -13 -14 -17 -17 -19 -24 -27 -24 -26 -32 -30 -22 -19 -16 -14 -13 -13 -13 -13
-7 -7 -7 -7 -7 -7 -7 -8 -9 -10 -10 -10 -11 -10 -10 -11 -11 -11 -11 -12 -12 -12 -12 -13 -13 -13 -14 -15 -15 -16 -21 -29 -31 -28 -30 -30 -25 -23 -20 -16 -14 -14 -13
-7 -7 -7 -6 -7 -6 -6 -7 -9 -10 -10 -9 -10 -11 -10 -9 -11 -11 -11 -11 -12 -11 -11 -13 -13 -13 -13 -13 -14 -15 -14 -19 -25 -27 -28 -29 -29 -29 -27 -22 -17 -17 -15
-7 -7 -7 -7 -8 -7 -7 -7 -7 -8 -10 -9 -9 -10 -11 -10 -10 -11 -11 -12 -12 -12 -10 -12 -13 -13 -13 -13 -13 -14 -15 -14 -16 -18 -24 -27 -28 -30 -32 -30 -26 -23 -21
-7 -7 -7 -8 -8 -8 -7 -7 -7 -7 -10 -11 -9 -9 -10 -11 -10 -10 -11 -12 -12 -12 -11 -12 -12 -13 -13 -13 -14 -14 -15 -15 -14 -15 -17 -21 -21 -23 -29 -33 -32 -31 -29
-7 -7 -8 -8 -9 -8 -8 -7 -7 -7 -7 -8 -8 -8 -8 -8 -9 -11 -11 -11 -11 -11 -11 -12 -12 -13 -13 -13 -14 -14 -14 -15 -15 -15 -16 -16 -16 -16 -17 -25 -31 -29 -29
-7 -8 -8 -8 -8 -8 -7 -7 -7 -7 -7 -7 -7 -7 -7 -7 -7 -8 -8 -10 -10 -11 -10 -11 -12 -13 -13 -13 -13 -14 -14 -15 -15 -15 -16 -16 -16 -16 -15 -16 -22 -28 -28
-8 -8 -8 -8 -8 -7 -7 -8 -8 -8 -8 -8 -8 -8 -8 -8 -8 -8 -8 -8 -9 -9 -9 -10 -12 -13 -14 -13 -13 -14 -14 -15 -15 -15 -16 -16 -16 -16 -16 -16 -17 -17 -17

GFSGL_850_dewp_006.txt.gz
Dewpoint
-9 -12 -11 -10 -11 -12 -11 -14 -17 -19 -7 -6 -4 -3 -3 -5 -6 -5 -8 -9 -10 -10 -10 -10 -10 -11 -11 -11 -12 -12 -12 -12 -13 -13 -12 -12 -11 -11 -9 -9 -9 -10 -8
-10 -11 -11 -10 -11 -10 -8 -8 -9 -8 -7 -5 -4 -4 -4 -5 -5 -8 -9 -9 -10 -10 -10 -10 -10 -11 -11 -11 -11 -11 -11 -12 -11 -11 -11 -11 -11 -11 -11 -10 -10 -11 -6
-11 -11 -11 -10 -10 -6 -7 -7 -7 -6 -5 -4 -4 -4 -5 -6 -8 -9 -9 -8 -9 -9 -9 -9 -10 -10 -10 -11 -11 -11 -10 -10 -9 -10 -11 -11 -11 -11 -10 -10 -10 -9 -7
-11 -11 -9 -10 -8 -6 -6 -7 -7 -6 -5 -4 -5 -4 -5 -7 -9 -8 -8 -8 -8 -8 -8 -9 -9 -10 -10 -10 -11 -11 -11 -10 -10 -11 -12 -12 -12 -12 -11 -10 -8 -8 -9
-11 -10 -8 -9 -8 -6 -6 -7 -7 -5 -4 -4 -5 -6 -7 -8 -8 -9 -8 -7 -8 -9 -10 -11 -12 -12 -15 -14 -11 -11 -11 -11 -11 -12 -12 -12 -11 -12 -12 -11 -9 -9 -7
-11 -10 -9 -9 -8 -6 -7 -7 -6 -6 -5 -5 -5 -5 -6 -7 -7 -8 -10 -9 -10 -11 -12 -13 -13 -13 -12 -13 -12 -12 -13 -12 -12 -11 -11 -11 -11 -10 -10 -9 -9 -10 -10
-11 -11 -12 -12 -8 -7 -7 -7 -7 -7 -6 -6 -6 -5 -5 -5 -10 -10 -10 -11 -10 -12 -13 -13 -13 -13 -12 -12 -12 -12 -11 -11 -12 -11 -11 -12 -11 -11 -11 -11 -10 -9 -10
-11 -11 -12 -8 -8 -8 -8 -7 -7 -7 -7 -7 -8 -6 -6 -8 -10 -10 -11 -10 -12 -13 -13 -12 -12 -12 -12 -12 -12 -12 -13 -13 -13 -12 -12 -11 -11 -10 -10 -10 -10 -10 -10
-10 -10 -11 -10 -9 -9 -9 -7 -6 -7 -7 -8 -7 -7 -7 -9 -10 -11 -10 -11 -14 -16 -12 -12 -15 -12 -12 -17 -12 -12 -13 -14 -12 -12 -12 -13 -13 -13 -13 -11 -11 -12 -10
-12 -13 -11 -10 -10 -9 -8 -7 -6 -6 -7 -9 -10 -12 -11 -10 -11 -9 -10 -14 -15 -14 -11 -14 -14 -17 -23 -19 -13 -13 -12 -12 -12 -12 -12 -12 -11 -11 -12 -11 -12 -11 -11
-18 -15 -10 -10 -9 -8 -7 -6 -6 -7 -7 -12 -13 -11 -10 -11 -9 -9 -11 -14 -16 -17 -12 -13 -14 -24 -21 -22 -24 -13 -15 -15 -13 -12 -12 -12 -12 -11 -11 -11 -11 -11 -11
-17 -16 -10 -10 -11 -8 -6 -6 -6 -6 -7 -12 -11 -10 -9 -8 -8 -9 -12 -14 -16 -19 -17 -12 -22 -26 -28 -27 -24 -25 -25 -17 -13 -13 -12 -12 -11 -11 -11 -11 -10 -10 -11
-18 -15 -12 -9 -8 -6 -6 -6 -6 -7 -7 -8 -8 -7 -8 -8 -9 -10 -12 -14 -15 -16 -18 -19 -20 -23 -23 -19 -18 -24 -20 -14 -13 -13 -12 -12 -12 -11 -11 -11 -10 -10 -10
-16 -14 -9 -9 -14 -6 -6 -6 -6 -7 -7 -8 -8 -8 -9 -9 -9 -9 -10 -10 -11 -11 -11 -13 -17 -16 -15 -15 -14 -13 -14 -17 -15 -14 -13 -13 -12 -11 -11 -10 -10 -9 -9
-14 -12 -9 -7 -7 -6 -6 -6 -6 -6 -7 -7 -8 -8 -8 -8 -8 -9 -10 -11 -11 -11 -14 -12 -11 -12 -12 -12 -13 -13 -14 -15 -16 -14 -14 -13 -12 -12 -11 -11 -10 -9 -9
-13 -10 -6 -6 -6 -6 -6 -5 -6 -6 -7 -8 -8 -9 -11 -12 -12 -11 -11 -12 -13 -13 -13 -11 -11 -11 -12 -12 -12 -13 -13 -14 -21 -19 -14 -13 -13 -12 -12 -11 -11 -10 -9
-12 -8 -7 -6 -5 -5 -6 -6 -6 -6 -7 -7 -7 -7 -9 -11 -12 -11 -11 -11 -12 -12 -12 -11 -11 -11 -12 -12 -12 -13 -14 -14 -22 -25 -14 -14 -14 -13 -12 -11 -11 -11 -10
-10 -10 -8 -5 -5 -5 -5 -6 -6 -6 -6 -7 -7 -7 -8 -10 -12 -11 -11 -10 -11 -11 -11 -11 -11 -11 -11 -11 -12 -12 -13 -18 -15 -21 -21 -15 -14 -14 -13 -12 -12 -12 -11
-9 -7 -5 -6 -7 -7 -7 -6 -6 -7 -6 -7 -7 -7 -8 -9 -10 -11 -10 -10 -10 -10 -10 -10 -11 -11 -11 -11 -12 -13 -13 -14 -26 -26 -18 -16 -15 -14 -13 -13 -13 -13 -12
-6 -5 -6 -7 -7 -7 -7 -6 -6 -6 -7 -7 -7 -7 -8 -9 -9 -11 -10 -10 -10 -10 -10 -10 -10 -10 -11 -11 -12 -13 -13 -14 -14 -19 -21 -21 -15 -15 -14 -14 -13 -13 -13
-5 -5 -7 -7 -7 -7 -6 -7 -7 -7 -7 -7 -7 -8 -9 -9 -9 -9 -9 -9 -10 -10 -10 -10 -10 -10 -11 -11 -12 -13 -13 -13 -14 -16 -18 -23 -25 -16 -15 -15 -14 -14 -13
-5 -6 -6 -7 -7 -7 -7 -7 -8 -8 -7 -7 -7 -7 -9 -9 -10 -10 -9 -9 -10 -10 -11 -10 -10 -10 -10 -11 -11 -12 -13 -13 -14 -15 -15 -19 -21 -15 -15 -15 -17 -16 -14
-6 -5 -6 -6 -7 -7 -8 -9 -8 -8 -8 -7 -7 -7 -8 -9 -9 -8 -9 -10 -11 -11 -11 -11 -12 -11 -11 -13 -13 -14 -14 -13 -14 -15 -15 -16 -17 -15 -15 -15 -16 -19 -22
-6 -6 -7 -8 -8 -8 -8 -8 -8 -8 -7 -7 -7 -7 -7 -8 -8 -8 -7 -7 -8 -9 -11 -11 -12 -12 -12 -12 -13 -14 -14 -14 -15 -15 -15 -15 -16 -15 -15 -15 -15 -21 -24
-7 -7 -7 -7 -8 -8 -8 -8 -7 -7 -7 -7 -7 -7 -7 -7 -8 -8 -7 -8 -8 -8 -8 -9 -10 -10 -11 -11 -12 -14 -13 -14 -15 -15 -16 -16 -16 -16 -16 -16 -16 -15 -20
-6 -6 -7 -9 -8 -8 -8 -8 -8 -8 -8 -8 -8 -8 -8 -8 -8 -8 -8 -8 -8 -8 -8 -8 -9 -10 -10 -10 -12 -13 -13 -13 -15 -15 -16 -16 -16 -16 -16 -16 -17 -17 -15

GFSGL_850_dewp_009.txt.gz
Dewpoint
-3 -5 -8 -5 -5 -5 -6 -7 -8 -7 -7 -7 -7 -5 -6 -6 -5 -5 -5 -5 -7 -8 -7 -6 -8 -8 -9 -9 -10 -11 -12 -12 -12 -11 -13 -13 -11 -10 -10 -10 -10 -10 -10
-5 -5 -5 -5 -5 -6 -7 -7 -7 -7 -7 -6 -5 -5 -6 -6 -7 -7 -7 -8 -8 -7 -7 -8 -8 -9 -9 -11 -12 -11 -11 -11 -11 -11 -11 -9 -9 -10 -11 -10 -10 -10 -10
-6 -7 -6 -6 -6 -6 -6 -6 -7 -7 -7 -5 -6 -6 -6 -5 -5 -6 -8 -7 -6 -6 -7 -7 -7 -8 -11 -11 -11 -11 -11 -12 -11 -9 -9 -10 -11 -11 -11 -11 -11 -9 -10
-9 -9 -8 -6 -6 -6 -6 -6 -7 -7 -6 -5 -6 -6 -6 -6 -9 -9 -8 -8 -7 -7 -6 -8 -10 -11 -11 -10 -11 -11 -11 -11 -11 -11 -11 -12 -11 -11 -11 -10 -10 -9 -9
-9 -9 -8 -6 -5 -6 -6 -6 -7 -6 -6 -6 -6 -5 -4 -5 -7 -9 -7 -6 -8 -8 -9 -11 -12 -12 -13 -13 -12 -11 -11 -11 -12 -12 -11 -11 -11 -10 -11 -11 -10 -10 -10
-8 -8 -7 -6 -7 -7 -6 -6 -6 -7 -7 -7 -7 -7 -4 -5 -6 -8 -10 -10 -10 -10 -11 -11 -12 -12 -12 -12 -11 -11 -12 -11 -11 -11 -12 -11 -12 -12 -11 -10 -10 -10 -10
-8 -8 -7 -7 -8 -7 -7 -8 -8 -8 -7 -7 -8 -8 -5 -5 -6 -10 -10 -10 -9 -9 -11 -12 -12 -13 -12 -11 -11 -13 -12 -13 -12 -11 -11 -11 -10 -10 -10 -10 -10 -9 -9
-8 -8 -8 -8 -8 -9 -9 -9 -9 -8 -8 -8 -8 -8 -7 -6 -7 -9 -10 -11 -8 -9 -11 -11 -12 -12 -12 -12 -22 -12 -12 -13 -13 -13 -11 -11 -11 -12 -12 -11 -11 -11 -12
-6 -8 -8 -11 -11 -10 -10 -10 -9 -8 -8 -8 -8 -8 -9 -8 -8 -10 -10 -10 -8 -9 -10 -11 -12 -13 -12 -18 -18 -12 -12 -13 -14 -14 -13 -12 -13 -14 -13 -11 -12 -12 -11
-9 -8 -10 -11 -11 -11 -11 -10 -9 -8 -8 -8 -8 -8 -8 -9 -9 -10 -10 -9 -10 -9 -10 -11 -12 -13 -18 -28 -27 -23 -12 -12 -14 -14 -12 -12 -11 -11 -11 -11 -11 -10 -11
-9 -9 -10 -11 -10 -9 -9 -8 -7 -7 -7 -6 -6 -7 -8 -10 -8 -10 -9 -10 -12 -12 -11 -11 -11 -12 -22 -25 -25 -21 -14 -24 -18 -12 -11 -11 -11 -10 -10 -10 -10 -10 -10
-9 -9 -9 -9 -8 -7 -6 -6 -6 -7 -6 -5 -5 -6 -6 -7 -9 -9 -11 -11 -13 -14 -15 -10 -12 -17 -20 -20 -17 -15 -17 -15 -12 -13 -12 -11 -11 -11 -11 -10 -11 -10 -10
-18 -14 -8 -7 -6 -6 -6 -6 -6 -6 -6 -6 -5 -6 -6 -6 -7 -8 -10 -11 -12 -12 -14 -13 -15 -18 -16 -14 -12 -13 -13 -12 -13 -13 -13 -12 -12 -11 -11 -10 -9 -10 -10
-17 -13 -11 -11 -7 -9 -6 -6 -7 -7 -6 -6 -5 -6 -7 -9 -9 -7 -9 -10 -10 -11 -10 -10 -14 -11 -11 -11 -11 -11 -12 -12 -13 -13 -13 -12 -12 -12 -11 -11 -10 -9 -9
-16 -16 -12 -11 -6 -6 -6 -6 -5 -6 -6 -5 -6 -6 -8 -10 -8 -10 -8 -9 -9 -10 -13 -14 -10 -10 -10 -11 -11 -11 -11 -12 -12 -14 -13 -13 -12 -12 -11 -11 -11 -10 -9
-15 -13 -9 -6 -5 -5 -6 -5 -5 -6 -7 -6 -7 -7 -9 -8 -9 -12 -13 -12 -12 -12 -13 -10 -10 -11 -11 -11 -11 -11 -11 -12 -12 -13 -13 -13 -13 -12 -12 -11 -10 -10 -10
-13 -13 -11 -6 -5 -6 -6 -6 -6 -5 -5 -6 -8 -8 -8 -7 -7 -9 -13 -12 -11 -11 -11 -10 -10 -10 -11 -11 -11 -11 -11 -12 -13 -12 -13 -13 -13 -13 -12 -12 -11 -11 -10
-13 -10 -7 -5 -5 -6 -6 -6 -6 -6 -6 -6 -6 -6 -7 -7 -8 -8 -11 -11 -10 -10 -10 -10 -10 -10 -11 -10 -11 -11 -11 -12 -12 -13 -13 -13 -13 -13 -12 -12 -12 -12 -11
-8 -7 -8 -6 -5 -5 -6 -6 -6 -6 -6 -6 -6 -7 -6 -8 -8 -8 -9 -10 -10 -9 -9 -9 -9 -10 -10 -11 -11 -11 -11 -12 -13 -13 -13 -13 -13 -13 -13 -13 -13 -13 -12
-6 -5 -5 -5 -5 -6 -6 -6 -6 -6 -6 -6 -7 -8 -7 -7 -7 -8 -9 -9 -9 -10 -10 -10 -10 -10 -10 -11 -11 -11 -11 -12 -12 -13 -13 -13 -13 -14 -13 -13 -13 -13 -13
-5 -5 -4 -5 -5 -6 -7 -7 -7 -7 -7 -7 -7 -7 -6 -7 -8 -8 -8 -9 -10 -9 -10 -10 -10 -10 -11 -10 -10 -11 -11 -12 -12 -13 -13 -13 -14 -14 -13 -13 -13 -13 -13
-5 -4 -4 -4 -5 -5 -6 -6 -7 -8 -7 -8 -8 -8 -7 -7 -7 -8 -8 -8 -8 -9 -9 -9 -9 -10 -10 -10 -10 -11 -11 -11 -12 -13 -13 -14 -15 -14 -14 -13 -13 -14 -14
-6 -4 -4 -5 -5 -6 -7 -7 -6 -7 -7 -9 -8 -8 -7 -6 -7 -7 -8 -8 -8 -8 -8 -8 -10 -11 -11 -11 -10 -10 -11 -11 -12 -12 -13 -14 -14 -14 -14 -14 -14 -14 -14
-5 -5 -6 -5 -6 -7 -7 -7 -7 -7 -7 -8 -8 -8 -7 -7 -7 -7 -7 -7 -7 -8 -8 -8 -8 -8 -9 -11 -11 -11 -12 -12 -13 -14 -16 -16 -15 -14 -14 -14 -14 -14 -15
-6 -6 -5 -6 -6 -6 -7 -8 -8 -7 -8 -7 -7 -8 -7 -7 -7 -7 -7 -8 -8 -8 -8 -8 -8 -8 -8 -9 -10 -11 -11 -12 -14 -14 -16 -16 -16 -16 -16 -15 -15 -14 -14
-7 -7 -6 -6 -6 -6 -7 -9 -7 -7 -7 -7 -8 -8 -8 -9 -9 -9 -9 -9 -9 -10 -9 -8 -9 -9 -8 -9 -9 -9 -10 -10 -13 -13 -15 -16 -16 -15 -15 -15 -15 -15 -14

GFSGL_850_dewp_012.txt.gz
Dewpoint
-2 -1 -3 -3 -7 -9 -8 -9 -10 -9 -11 -8 -7 -6 -6 -6 -6 -6 -5 -7 -6 -6 -5 -6 -6 -7 -8 -9 -9 -10 -11 -11 -10 -10 -11 -11 -10 -12 -13 -12 -12 -13 -12
-2 -3 -4 -5 -5 -5 -6 -6 -6 -8 -7 -7 -6 -5 -6 -6 -6 -6 -6 -7 -7 -7 -7 -5 -6 -7 -7 -8 -10 -11 -10 -10 -11 -11 -11 -11 -11 -13 -11 -11 -12 -11 -11
-3 -4 -4 -5 -4 -5 -5 -6 -6 -6 -7 -7 -6 -5 -6 -6 -6 -6 -7 -8 -7 -6 -6 -6 -7 -8 -10 -11 -11 -11 -12 -13 -12 -11 -11 -11 -11 -11 -12 -12 -11 -11 -10
-4 -5 -5 -5 -5 -5 -5 -6 -5 -6 -6 -6 -5 -6 -5 -6 -6 -8 -8 -8 -7 -6 -7 -8 -9 -11 -11 -12 -12 -14 -14 -12 -12 -12 -12 -12 -12 -14 -12 -12 -12 -13 -13
-4 -7 -8 -8 -6 -5 -6 -5 -5 -6 -6 -6 -7 -7 -6 -6 -4 -6 -7 -9 -11 -9 -10 -10 -10 -11 -12 -12 -13 -12 -11 -12 -13 -13 -12 -13 -12 -12 -13 -11 -10 -10 -12
-5 -8 -8 -7 -6 -6 -6 -7 -6 -6 -7 -7 -7 -7 -7 -6 -5 -6 -6 -11 -13 -12 -9 -10 -10 -12 -13 -13 -11 -11 -11 -12 -13 -12 -12 -11 -12 -11 -10 -10 -11 -11 -11
-6 -7 -7 -6 -6 -5 -8 -7 -7 -8 -8 -7 -7 -7 -8 -7 -7 -6 -7 -12 -10 -10 -9 -10 -11 -11 -12 -11 -12 -14 -18 -14 -12 -13 -12 -10 -10 -11 -12 -12 -14 -13 -13
-6 -7 -7 -7 -4 -7 -9 -9 -9 -9 -9 -8 -7 -8 -8 -7 -6 -6 -7 -9 -10 -10 -9 -10 -10 -11 -11 -14 -16 -24 -25 -18 -13 -13 -12 -13 -13 -14 -14 -14 -13 -13 -14
-7 -6 -4 -4 -7 -9 -10 -10 -10 -10 -9 -8 -8 -8 -8 -8 -8 -8 -9 -9 -11 -9 -10 -11 -10 -11 -13 -14 -19 -26 -25 -23 -14 -15 -20 -18 -14 -13 -12 -10 -12 -12 -12
-6 -4 -7 -4 -6 -10 -10 -10 -10 -9 -8 -8 -7 -7 -7 -8 -9 -10 -9 -10 -10 -10 -12 -12 -10 -10 -11 -13 -20 -22 -20 -18 -19 -18 -14 -13 -13 -12 -11 -10 -10 -10 -10
-4 -4 -4 -6 -10 -9 -9 -8 -8 -7 -7 -7 -7 -6 -6 -7 -10 -10 -11 -10 -11 -12 -14 -14 -10 -10 -11 -17 -18 -17 -15 -14 -14 -14 -14 -14 -12 -12 -13 -12 -11 -10 -10
-5 -3 -6 -9 -8 -6 -7 -12 -7 -7 -6 -6 -5 -6 -6 -8 -8 -9 -8 -8 -11 -12 -14 -14 -13 -14 -15 -17 -15 -14 -13 -14 -13 -12 -15 -13 -13 -13 -12 -12 -11 -10 -9
-5 -6 -11 -16 -16 -14 -13 -14 -10 -6 -6 -6 -6 -6 -7 -8 -7 -6 -7 -8 -10 -12 -12 -13 -13 -15 -13 -12 -12 -11 -11 -13 -12 -13 -14 -14 -13 -13 -12 -12 -11 -10 -10
-9 -16 -18 -16 -15 -14 -9 -8 -9 -5 -6 -6 -6 -6 -6 -8 -7 -8 -9 -8 -8 -10 -11 -11 -13 -14 -12 -12 -11 -11 -11 -12 -13 -12 -12 -15 -13 -13 -13 -12 -11 -11 -11
-17 -15 -16 -15 -13 -9 -7 -5 -6 -9 -6 -6 -5 -5 -5 -6 -7 -9 -10 -10 -8 -9 -10 -11 -13 -12 -11 -12 -13 -12 -12 -13 -12 -12 -14 -14 -14 -14 -13 -13 -11 -11 -11
-15 -15 -14 -13 -11 -10 -7 -5 -5 -7 -7 -7 -6 -6 -6 -5 -6 -8 -8 -9 -12 -10 -11 -12 -13 -12 -11 -11 -12 -12 -11 -11 -11 -13 -14 -13 -14 -14 -14 -13 -12 -11 -11
-13 -13 -13 -12 -10 -7 -5 -6 -7 -6 -6 -7 -6 -6 -7 -7 -7 -8 -7 -7 -11 -12 -12 -12 -13 -12 -11 -12 -12 -12 -10 -12 -13 -13 -13 -14 -14 -14 -15 -13 -12 -13 -13
-12 -12 -11 -9 -6 -5 -5 -5 -5 -5 -6 -7 -7 -6 -6 -6 -6 -7 -7 -8 -9 -11 -12 -11 -11 -11 -12 -11 -11 -12 -11 -12 -12 -13 -13 -13 -13 -14 -14 -14 -14 -12 -14
-9 -9 -8 -7 -6 -6 -6 -5 -6 -6 -6 -6 -7 -7 -8 -8 -7 -7 -7 -8 -9 -10 -10 -10 -10 -10 -10 -10 -10 -11 -11 -11 -12 -13 -13 -13 -13 -13 -14 -13 -15 -14 -13
-6 -6 -6 -5 -5 -5 -5 -5 -6 -7 -8 -8 -7 -6 -6 -6 -7 -7 -7 -8 -8 -9 -9 -10 -10 -11 -11 -9 -9 -10 -11 -11 -12 -12 -13 -13 -13 -13 -14 -13 -14 -15 -14
-4 -4 -4 -4 -4 -5 -6 -5 -5 -5 -6 -6 -7 -8 -7 -6 -6 -6 -7 -8 -9 -9 -9 -10 -10 -10 -10 -10 -11 -10 -10 -11 -12 -12 -12 -14 -13 -14 -14 -14 -14 -14 -15
-5 -6 -6 -5 -5 -5 -6 -5 -6 -5 -6 -6 -6 -7 -8 -7 -7 -7 -6 -7 -7 -8 -8 -8 -8 -9 -9 -9 -9 -10 -10 -10 -11 -12 -12 -15 -15 -15 -14 -13 -14 -14 -14
-8 -7 -5 -5 -5 -6 -6 -6 -5 -7 -7 -7 -7 -7 -7 -8 -7 -7 -7 -6 -6 -7 -7 -8 -8 -8 -8 -8 -9 -9 -9 -10 -10 -11 -13 -14 -17 -16 -14 -13 -14 -14 -14
-9 -10 -8 -8 -7 -6 -6 -6 -5 -6 -6 -7 -8 -7 -8 -8 -7 -7 -7 -7 -6 -7 -7 -8 -8 -8 -8 -8 -8 -8 -9 -10 -10 -10 -13 -14 -16 -17 -16 -15 -14 -14 -14
-11 -11 -9 -9 -9 -7 -7 -7 -6 -6 -8 -10 -7 -7 -7 -7 -8 -8 -8 -8 -8 -8 -8 -8 -8 -9 -9 -9 -8 -8 -8 -9 -10 -10 -12 -14 -16 -17 -16 -16 -16 -15 -15
-11 -11 -10 -9 -8 -7 -7 -7 -6 -7 -8 -7 -7 -8 -8 -8 -9 -9 -9 -10 -9 -9 -9 -9 -10 -10 -10 -10 -9 -9 -9 -8 -9 -10 -10 -13 -14 -17 -17 -16 -16 -16 -16

GFSGL_850_dewp_015.txt.gz
Dewpoint
2 0 -2 -1 -2 -5 -10 -9 -12 -15 -14 -16 -12 -9 -9 -7 -6 -6 -6 -6 -7 -7 -7 -6 -6 -5 -6 -7 -7 -9 -10 -10 -10 -10 -11 -11 -12 -13 -13 -13 -14 -13 -13
2 -2 -2 -3 -4 -7 -7 -7 -8 -9 -10 -11 -10 -10 -8 -5 -5 -6 -7 -7 -6 -7 -7 -7 -7 -7 -8 -8 -10 -11 -12 -12 -12 -15 -17 -16 -14 -13 -13 -13 -15 -14 -12
-0 -3 -2 -3 -4 -4 -5 -5 -6 -7 -8 -7 -10 -10 -6 -5 -5 -8 -7 -7 -8 -8 -7 -6 -6 -8 -9 -11 -11 -12 -12 -14 -15 -14 -16 -16 -15 -15 -15 -15 -15 -14 -14
-2 -2 -2 -3 -5 -4 -4 -5 -6 -6 -6 -6 -8 -8 -6 -6 -6 -6 -6 -7 -7 -9 -11 -8 -9 -10 -10 -10 -11 -13 -13 -15 -14 -15 -16 -14 -13 -14 -13 -11 -11 -12 -13
-2 -2 -4 -6 -5 -4 -5 -5 -4 -5 -5 -6 -7 -7 -7 -6 -6 -7 -6 -6 -6 -6 -17 -15 -12 -11 -11 -11 -13 -13 -13 -12 -15 -17 -14 -12 -12 -12 -11 -11 -11 -13 -16
-2 -3 -5 -6 -5 -5 -4 -2 -6 -8 -8 -7 -8 -7 -7 -7 -7 -8 -7 -6 -6 -12 -12 -11 -10 -12 -11 -12 -12 -12 -11 -13 -19 -13 -12 -12 -11 -11 -12 -12 -13 -14 -15
-2 -3 -7 -6 -6 -4 -3 -2 -8 -7 -8 -8 -8 -8 -7 -7 -8 -8 -7 -7 -7 -9 -10 -11 -11 -10 -11 -11 -12 -13 -19 -25 -26 -16 -12 -11 -12 -13 -13 -14 -14 -13 -13
-2 -5 -7 -6 -5 -3 -2 -6 -8 -9 -8 -9 -9 -8 -7 -7 -7 -7 -7 -8 -8 -8 -10 -11 -12 -12 -11 -11 -13 -15 -19 -22 -21 -17 -12 -14 -16 -15 -13 -12 -11 -12 -13
-5 -6 -6 -6 -4 -2 -5 -8 -8 -9 -10 -10 -9 -8 -7 -7 -7 -7 -7 -8 -9 -9 -11 -11 -13 -12 -10 -11 -12 -13 -19 -18 -16 -17 -16 -16 -14 -13 -12 -11 -11 -11 -10
-6 -6 -5 -4 -2 -2 -6 -10 -9 -8 -9 -8 -8 -8 -7 -7 -7 -7 -7 -9 -11 -11 -12 -12 -14 -14 -12 -11 -12 -17 -17 -15 -15 -15 -15 -17 -14 -13 -12 -12 -11 -11 -11
-5 -4 -3 -2 -2 -5 -10 -9 -8 -8 -10 -13 -7 -6 -6 -6 -6 -7 -9 -10 -11 -10 -11 -13 -14 -14 -15 -14 -15 -16 -14 -14 -13 -14 -14 -15 -16 -14 -14 -13 -11 -11 -11
-3 -2 -2 -2 -5 -10 -7 -8 -12 -14 -12 -7 -6 -5 -5 -5 -7 -8 -10 -10 -10 -9 -9 -12 -13 -15 -14 -15 -13 -13 -12 -12 -12 -13 -13 -14 -14 -16 -14 -13 -12 -12 -11
-1 -0 -1 -7 -12 -15 -13 -14 -13 -11 -7 -7 -6 -6 -6 -6 -7 -8 -9 -9 -9 -11 -9 -10 -12 -14 -14 -14 -13 -12 -11 -12 -12 -13 -13 -13 -13 -15 -13 -13 -13 -12 -12
-1 -6 -9 -13 -16 -15 -14 -11 -8 -6 -6 -7 -5 -5 -5 -5 -6 -7 -7 -8 -10 -10 -11 -10 -11 -12 -13 -13 -11 -12 -13 -11 -12 -12 -13 -12 -14 -15 -15 -14 -12 -12 -12
-10 -16 -15 -15 -15 -14 -13 -10 -8 -6 -6 -7 -9 -6 -6 -5 -5 -6 -6 -7 -9 -9 -10 -9 -9 -10 -12 -13 -12 -12 -13 -11 -11 -11 -11 -13 -15 -14 -15 -14 -12 -12 -12
-16 -14 -14 -14 -14 -13 -11 -10 -8 -6 -5 -6 -7 -7 -7 -6 -6 -6 -6 -6 -7 -7 -8 -11 -10 -11 -12 -13 -11 -12 -13 -11 -11 -11 -12 -15 -14 -14 -14 -15 -13 -13 -13
-12 -13 -13 -12 -12 -11 -9 -8 -7 -6 -6 -6 -7 -7 -7 -7 -6 -6 -6 -7 -7 -7 -8 -9 -13 -13 -12 -13 -12 -12 -13 -12 -11 -11 -12 -15 -14 -14 -14 -14 -15 -14 -14
-6 -8 -10 -11 -9 -8 -7 -6 -5 -5 -7 -8 -8 -9 -8 -7 -8 -8 -7 -6 -7 -8 -9 -10 -11 -12 -12 -13 -12 -11 -11 -11 -12 -11 -13 -14 -14 -14 -14 -14 -14 -15 -14
-8 -6 -5 -5 -5 -5 -5 -4 -5 -5 -5 -6 -6 -7 -9 -9 -7 -6 -6 -6 -7 -7 -9 -9 -10 -11 -12 -11 -11 -10 -10 -10 -11 -12 -13 -13 -14 -14 -15 -14 -14 -15 -15
-6 -6 -4 -4 -4 -4 -4 -5 -5 -5 -5 -7 -7 -6 -7 -7 -8 -8 -6 -6 -7 -8 -8 -9 -9 -10 -11 -11 -11 -10 -10 -10 -11 -11 -12 -14 -13 -14 -15 -15 -14 -14 -14
-12 -14 -12 -8 -6 -5 -5 -6 -5 -6 -7 -6 -5 -8 -6 -6 -6 -7 -7 -9 -6 -6 -7 -7 -8 -8 -10 -10 -10 -10 -11 -11 -10 -10 -11 -13 -14 -18 -16 -15 -14 -14 -14
-16 -15 -15 -15 -15 -14 -12 -9 -6 -6 -6 -6 -6 -6 -6 -6 -7 -7 -7 -8 -7 -8 -7 -7 -7 -8 -8 -8 -9 -9 -9 -9 -9 -10 -10 -11 -13 -16 -18 -16 -15 -14 -14
-19 -17 -13 -11 -10 -10 -10 -10 -10 -9 -8 -6 -6 -6 -7 -6 -7 -7 -8 -8 -7 -7 -7 -7 -7 -7 -8 -8 -8 -8 -8 -9 -10 -9 -10 -10 -11 -14 -17 -17 -15 -14 -14
-14 -12 -12 -13 -12 -11 -10 -9 -8 -8 -8 -7 -7 -6 -6 -9 -7 -8 -8 -7 -7 -7 -7 -7 -7 -7 -8 -8 -8 -8 -8 -8 -8 -9 -9 -10 -10 -14 -17 -17 -16 -15 -15
-14 -13 -13 -13 -13 -12 -12 -10 -9 -9 -8 -8 -7 -7 -9 -7 -7 -7 -8 -8 -8 -8 -8 -8 -8 -8 -8 -9 -9 -9 -9 -9 -9 -8 -9 -10 -10 -13 -15 -18 -17 -16 -16
-15 -15 -15 -14 -14 -14 -14 -13 -13 -12 -11 -11 -11 -10 -10 -9 -9 -9 -9 -9 -9 -9 -9 -9 -9 -10 -10 -10 -11 -10 -9 -9 -9 -9 -9 -9 -10 -11 -14 -17 -17 -17 -16

GFSGL_850_dewp_018.txt.gz
Dewpoint
5 5 3 2 -1 -1 -2 -6 -5 -10 -7 -14 -16 -17 -18 -20 -11 -8 -6 -6 -7 -7 -7 -7 -6 -6 -6 -6 -6 -8 -10 -11 -12 -12 -14 -17 -17 -18 -18 -16 -16 -16 -16
7 4 2 2 -0 -1 -3 -7 -6 -4 -8 -12 -11 -11 -15 -14 -7 -6 -6 -7 -8 -8 -7 -7 -8 -7 -7 -8 -9 -11 -11 -11 -12 -14 -17 -18 -19 -18 -16 -15 -15 -15 -14
2 2 2 2 -1 -2 -3 -5 -5 -4 -7 -7 -7 -9 -11 -10 -6 -5 -6 -6 -7 -8 -8 -8 -9 -10 -9 -10 -11 -10 -11 -13 -13 -14 -16 -18 -17 -15 -15 -14 -14 -14 -13
3 2 2 0 -2 -3 -4 -4 -3 -5 -5 -6 -8 -8 -8 -8 -7 -6 -6 -6 -6 -6 -7 -8 -8 -15 -15 -11 -11 -12 -13 -13 -13 -15 -20 -21 -15 -14 -13 -12 -13 -14 -15
3 2 1 -2 -2 -3 -4 -4 -5 -4 -5 -7 -8 -8 -8 -7 -7 -7 -6 -7 -7 -6 -6 -7 -12 -12 -11 -11 -13 -12 -12 -12 -13 -18 -24 -22 -15 -13 -12 -12 -13 -14 -16
3 2 -1 -2 -4 -4 -4 -5 -4 -6 -6 -8 -7 -8 -7 -8 -7 -7 -7 -8 -7 -6 -7 -9 -9 -10 -11 -13 -13 -12 -12 -12 -17 -23 -24 -21 -13 -12 -12 -14 -15 -13 -11
3 -1 -2 -4 -5 -4 -5 -4 -3 -2 -1 -6 -9 -7 -8 -8 -7 -7 -7 -7 -5 -5 -6 -8 -10 -11 -12 -14 -13 -12 -12 -14 -18 -21 -20 -17 -14 -15 -14 -12 -13 -12 -11
-0 -2 -4 -5 -4 -5 -4 -2 -1 -1 -6 -8 -8 -8 -10 -9 -7 -7 -7 -7 -6 -6 -7 -9 -10 -11 -12 -14 -13 -14 -15 -15 -18 -17 -16 -16 -15 -15 -13 -12 -11 -11 -12
-1 -4 -5 -5 -5 -4 -2 -1 -1 -2 -8 -8 -10 -9 -9 -8 -7 -7 -7 -6 -6 -6 -8 -11 -12 -14 -14 -14 -15 -16 -16 -17 -17 -15 -15 -14 -16 -14 -12 -11 -12 -13 -13
-4 -5 -5 -3 -3 -1 -1 -1 -2 -7 -9 -9 -9 -9 -9 -9 -7 -7 -7 -6 -6 -8 -11 -11 -11 -15 -15 -15 -16 -16 -17 -16 -14 -14 -15 -14 -14 -15 -16 -13 -13 -12 -11
-5 -4 -3 -2 -2 -1 -1 -5 -8 -8 -8 -11 -15 -14 -11 -8 -6 -6 -5 -7 -9 -10 -11 -11 -10 -12 -15 -16 -17 -17 -15 -14 -13 -13 -13 -13 -14 -13 -15 -14 -13 -12 -12
-4 -2 -1 -0 -0 -1 -7 -7 -9 -11 -13 -14 -12 -10 -8 -7 -5 -5 -6 -8 -9 -10 -11 -12 -11 -11 -14 -17 -18 -16 -14 -12 -13 -12 -12 -13 -12 -13 -15 -16 -14 -14 -12
-1 0 -0 -1 -4 -6 -12 -15 -14 -15 -12 -10 -9 -9 -7 -6 -5 -5 -6 -7 -8 -9 -10 -11 -12 -12 -13 -14 -15 -14 -13 -13 -12 -11 -12 -12 -12 -13 -15 -17 -15 -12 -12
-2 -5 -8 -12 -16 -16 -16 -15 -15 -14 -13 -9 -7 -9 -9 -6 -5 -5 -5 -5 -7 -7 -8 -10 -9 -11 -13 -12 -12 -14 -13 -12 -13 -12 -11 -11 -12 -14 -15 -16 -13 -13 -14
-16 -17 -17 -15 -15 -15 -15 -14 -13 -12 -9 -8 -8 -6 -6 -8 -9 -6 -6 -6 -5 -6 -7 -8 -8 -9 -12 -13 -12 -13 -13 -12 -12 -12 -11 -11 -12 -15 -15 -15 -14 -14 -14
-14 -14 -13 -13 -13 -12 -12 -12 -11 -10 -9 -7 -7 -6 -7 -7 -7 -7 -7 -6 -6 -6 -6 -7 -8 -8 -9 -13 -13 -12 -13 -12 -12 -13 -11 -11 -13 -16 -15 -15 -15 -15 -14
-10 -9 -7 -7 -7 -7 -8 -7 -7 -9 -7 -6 -5 -5 -7 -9 -8 -8 -8 -7 -6 -6 -7 -7 -8 -8 -8 -10 -13 -12 -13 -13 -12 -12 -11 -11 -13 -17 -15 -15 -14 -15 -15
-8 -7 -6 -6 -6 -5 -5 -4 -4 -4 -5 -5 -5 -6 -7 -7 -6 -8 -8 -6 -6 -6 -7 -7 -8 -8 -10 -10 -12 -12 -13 -12 -11 -10 -10 -11 -12 -14 -16 -15 -15 -14 -15
-7 -7 -7 -7 -8 -8 -7 -6 -6 -6 -6 -5 -5 -6 -5 -5 -6 -5 -8 -7 -6 -6 -7 -6 -7 -8 -9 -9 -10 -12 -13 -12 -11 -10 -10 -10 -11 -13 -16 -16 -16 -15 -14
-14 -17 -21 -22 -22 -22 -20 -17 -14 -9 -7 -5 -6 -7 -7 -7 -6 -6 -6 -7 -7 -7 -7 -7 -7 -7 -9 -8 -9 -10 -12 -11 -10 -10 -10 -10 -11 -13 -15 -17 -16 -15 -15
-28 -27 -25 -22 -20 -15 -12 -11 -10 -10 -10 -11 -12 -9 -8 -8 -6 -6 -6 -7 -8 -7 -7 -8 -8 -7 -7 -8 -8 -10 -11 -11 -11 -11 -10 -10 -10 -11 -13 -16 -16 -16 -15
-24 -21 -17 -17 -15 -14 -13 -11 -11 -10 -10 -9 -9 -10 -9 -8 -7 -7 -6 -6 -7 -7 -8 -8 -8 -7 -8 -7 -8 -8 -9 -10 -10 -9 -9 -9 -9 -10 -11 -14 -17 -16 -16
-21 -18 -16 -15 -15 -14 -14 -13 -12 -11 -11 -10 -9 -9 -8 -9 -8 -8 -7 -7 -7 -7 -8 -7 -7 -7 -7 -7 -7 -8 -8 -8 -9 -8 -9 -9 -9 -10 -10 -12 -17 -17 -16
-19 -18 -16 -15 -15 -15 -15 -14 -14 -13 -13 -12 -12 -11 -9 -7 -7 -7 -7 -8 -7 -7 -8 -7 -7 -7 -7 -8 -7 -8 -8 -8 -9 -9 -9 -8 -9 -10 -10 -11 -15 -17 -17
-19 -18 -17 -16 -16 -16 -15 -15 -15 -15 -14 -14 -13 -13 -13 -12 -11 -10 -9 -8 -8 -8 -8 -8 -8 -8 -8 -8 -8 -8 -8 -9 -9 -9 -9 -9 -9 -9 -10 -11 -13 -17 -17
-19 -19 -18 -18 -18 -17 -17 -17 -16 -16 -16 -16 -15 -15 -14 -14 -13 -13 -13 -12 -10 -10 -9 -10 -10 -9 -9 -10 -10 -10 -10 -10 -9 -9 -9 -9 -9 -9 -10 -10 -13 -16 -17

GFSGL_850_dewp_021.txt.gz
Dewpoint
8 8 7 5 4 2 1 -2 -3 -8 -5 -6 -9 -10 -11 -11 -14 -16 -9 -7 -6 -6 -8 -8 -7 -7 -7 -7 -7 -7 -9 -10 -11 -12 -13 -15 -18 -19 -19 -18 -17 -16 -15
8 7 6 5 4 2 -1 -1 -2 -6 -6 -4 -10 -7 -11 -15 -14 -12 -10 -8 -7 -8 -9 -8 -8 -8 -8 -7 -9 -10 -11 -11 -11 -13 -14 -16 -19 -22 -20 -17 -16 -15 -15
7 6 5 5 4 1 -0 -0 -4 -6 -4 -7 -7 -9 -9 -6 -10 -10 -9 -7 -6 -7 -8 -7 -7 -8 -7 -15 -15 -12 -11 -13 -13 -12 -13 -17 -22 -23 -21 -17 -16 -16 -16
6 5 5 5 2 1 1 -2 -4 -5 -3 -5 -6 -6 -4 -8 -8 -8 -7 -7 -6 -6 -7 -7 -7 -7 -12 -12 -12 -11 -13 -12 -12 -12 -15 -20 -22 -21 -19 -15 -17 -17 -20
6 5 5 2 2 1 -1 -3 -4 -4 -5 -6 -6 -1 -6 -8 -7 -7 -7 -7 -7 -6 -6 -6 -5 -8 -10 -10 -11 -12 -13 -12 -12 -13 -17 -20 -20 -19 -17 -17 -17 -16 -14
5 5 3 2 1 -1 -3 -4 -5 -5 -5 -6 -2 -1 -8 -7 -7 -7 -7 -7 -6 -6 -6 -5 -6 -7 -8 -10 -11 -12 -13 -11 -12 -13 -17 -19 -17 -16 -16 -17 -15 -13 -12
5 3 3 2 -0 -2 -4 -4 -4 -5 -4 -2 -1 -5 -9 -8 -8 -9 -8 -7 -6 -7 -6 -5 -6 -7 -9 -11 -11 -13 -12 -11 -12 -14 -18 -16 -16 -14 -16 -15 -13 -11 -11
4 3 2 -0 -2 -3 -4 -4 -3 -1 -1 -1 -1 -8 -8 -9 -9 -9 -9 -7 -7 -7 -6 -6 -7 -8 -11 -13 -13 -14 -13 -13 -13 -17 -16 -15 -14 -14 -16 -13 -12 -12 -13
2 1 0 -1 -3 -3 -1 -1 -1 -1 -1 -2 -8 -8 -10 -12 -11 -10 -8 -7 -7 -7 -6 -6 -8 -11 -12 -15 -15 -14 -14 -15 -17 -16 -15 -14 -14 -14 -13 -14 -15 -13 -14
1 -1 -2 -3 -3 -3 -1 -1 -1 -1 -2 -7 -9 -13 -15 -18 -16 -12 -7 -7 -7 -7 -6 -8 -9 -12 -12 -13 -15 -15 -16 -17 -17 -16 -15 -15 -14 -14 -14 -14 -14 -13 -12
-2 -3 -3 -3 -2 -1 -1 -1 -0 -2 -6 -11 -15 -17 -16 -16 -13 -9 -7 -6 -6 -6 -7 -9 -11 -13 -13 -12 -15 -16 -18 -18 -17 -15 -15 -14 -13 -13 -13 -15 -15 -15 -13
-4 -3 -2 -0 -1 -0 -1 -2 -4 -8 -13 -14 -14 -14 -15 -15 -11 -8 -7 -5 -5 -6 -8 -9 -10 -11 -12 -13 -14 -17 -16 -17 -16 -15 -14 -13 -12 -12 -13 -14 -15 -16 -13
-2 -0 -1 -2 -3 -6 -8 -11 -13 -13 -13 -14 -12 -14 -14 -12 -12 -7 -6 -6 -6 -5 -6 -8 -8 -9 -10 -10 -13 -14 -13 -16 -15 -15 -14 -14 -12 -12 -12 -15 -16 -16 -13
-9 -13 -14 -15 -14 -14 -14 -14 -13 -14 -13 -12 -12 -12 -12 -9 -7 -9 -8 -6 -6 -6 -6 -6 -6 -7 -8 -9 -10 -11 -11 -14 -14 -14 -14 -14 -13 -12 -13 -15 -15 -16 -17
-13 -12 -11 -11 -10 -11 -12 -11 -11 -11 -10 -10 -10 -10 -9 -10 -9 -7 -6 -7 -8 -7 -6 -6 -6 -6 -7 -8 -8 -10 -11 -12 -14 -13 -14 -13 -13 -11 -14 -16 -15 -16 -16
-12 -12 -12 -11 -11 -11 -11 -12 -12 -11 -9 -7 -6 -6 -6 -7 -6 -7 -7 -7 -6 -6 -6 -6 -6 -6 -7 -7 -7 -8 -10 -13 -14 -13 -13 -13 -12 -11 -14 -16 -15 -15 -16
-11 -10 -10 -10 -9 -8 -8 -7 -8 -12 -10 -9 -8 -6 -6 -5 -7 -6 -7 -7 -8 -6 -7 -7 -7 -7 -6 -7 -7 -8 -9 -13 -13 -13 -13 -12 -11 -11 -12 -14 -15 -16 -16
-8 -8 -10 -12 -15 -19 -22 -22 -21 -19 -14 -19 -10 -7 -7 -8 -8 -6 -6 -5 -6 -6 -6 -7 -8 -7 -7 -7 -7 -8 -10 -12 -13 -13 -13 -11 -10 -11 -11 -12 -15 -16 -16
-16 -20 -25 -29 -29 -27 -25 -23 -21 -19 -16 -15 -20 -22 -19 -13 -8 -7 -6 -6 -6 -6 -7 -8 -7 -7 -7 -7 -7 -7 -8 -10 -13 -14 -13 -11 -11 -10 -11 -12 -16 -16 -16
-30 -30 -29 -28 -26 -24 -21 -18 -16 -14 -13 -11 -11 -11 -11 -10 -10 -11 -9 -8 -10 -6 -6 -7 -7 -8 -7 -7 -7 -7 -7 -8 -10 -12 -12 -11 -11 -10 -10 -11 -14 -18 -16
-30 -29 -28 -25 -22 -20 -17 -15 -14 -14 -13 -13 -12 -11 -10 -10 -10 -9 -9 -8 -8 -8 -7 -7 -7 -7 -8 -8 -7 -7 -7 -8 -11 -12 -12 -11 -10 -10 -10 -11 -11 -18 -17
-28 -27 -24 -21 -19 -17 -16 -15 -15 -14 -14 -14 -13 -13 -13 -11 -10 -10 -8 -8 -7 -8 -7 -7 -7 -7 -8 -8 -8 -7 -7 -7 -9 -10 -10 -10 -10 -10 -10 -10 -11 -14 -18
-25 -23 -22 -21 -19 -18 -17 -16 -16 -16 -16 -15 -15 -14 -13 -13 -13 -12 -10 -8 -8 -7 -7 -7 -7 -8 -8 -8 -8 -7 -8 -8 -8 -8 -9 -9 -9 -9 -9 -10 -10 -11 -17
-23 -22 -21 -20 -20 -19 -18 -18 -17 -17 -17 -16 -16 -16 -15 -14 -14 -13 -13 -13 -11 -9 -8 -8 -8 -8 -8 -8 -8 -8 -8 -8 -8 -8 -8 -8 -8 -8 -9 -9 -10 -11 -14
-22 -21 -21 -21 -20 -20 -19 -19 -19 -18 -18 -18 -17 -17 -17 -16 -15 -15 -14 -13 -13 -13 -11 -10 -8 -8 -8 -9 -8 -8 -8 -8 -8 -8 -9 -9 -9 -9 -9 -9 -10 -10 -12
-22 -21 -21 -20 -20 -20 -20 -20 -20 -19 -19 -19 -19 -18 -18 -17 -17 -16 -15 -15 -14 -13 -13 -13 -11 -10 -10 -9 -9 -9 -9 -9 -9 -9 -9 -9 -9 -9 -9 -9 -9 -10 -12